SCP
0 0 0 0 0 1 1 1 0 0 0 0 0 0 0 0 0 0 0 0 0 0 0 0 0 0 0 0 0 0 0 0 0 0 0 0 0 0 0 0 0 0 0
1 1 0 0 1 1 1 1 0 0 0 0 0 0 0 0 0 0 0 0 0 0 0 0 0 0 0 0 0 0 0 0 0 0 0 0 0 0 0 0 0 0 0
1 1 1 0 1 1 1 1 0 0 0 0 0 0 0 0 0 0 0 0 1 0 0 0 0 0 0 0 0 0 0 0 0 0 0 0 0 0 0 0 0 0 0
0 1 2 1 1 0 1 1 1 1 0 0 0 0 0 0 0 0 0 0 0 0 0 0 0 0 0 0 0 0 0 0 0 0 0 0 0 0 0 0 0 0 0
0 0 1 2 1 1 0 0 0 0 0 0 0 0 0 0 0 1 0 0 0 0 0 0 0 0 0 0 0 0 0 0 0 0 0 0 0 0 0 0 0 0 0
0 0 0 1 2 1 1 0 0 0 0 0 0 0 0 0 0 0 1 1 0 0 0 0 0 0 0 0 0 0 0 0 0 0 0 0 0 0 0 0 0 0 0
0 0 0 0 1 1 1 1 0 0 0 0 0 0 0 0 0 0 0 1 0 0 0 0 0 0 0 0 0 0 0 0 0 0 0 0 0 0 0 0 0 0 0
0 0 0 0 0 1 1 1 0 0 0 0 0 0 0 0 0 0 0 0 0 0 0 0 0 0 0 0 0 0 0 0 0 0 0 0 0 0 0 0 0 0 0
0 0 0 0 0 1 0 0 0 1 1 0 0 0 0 0 0 0 0 0 0 0 0 0 0 0 0 0 0 0 0 0 0 0 0 0 0 0 0 0 0 0 0
-0 0 0 0 0 0 0 0 0 0 1 0 0 0 0 0 0 0 0 0 0 0 0 0 0 0 0 0 0 0 0 0 0 0 0 0 0 0 0 0 0 0 0
-0 -0 -0 0 0 0 0 0 0 0 0 1 1 0 0 0 0 0 0 0 0 0 0 0 0 0 0 0 0 0 0 0 0 0 0 0 0 0 0 0 0 0 0
-0 -0 -0 0 0 0 0 0 0 0 0 0 0 0 0 0 0 0 0 0 0 0 0 0 0 0 0 0 0 0 0 0 0 0 0 0 0 0 0 0 0 0 0
-0 -0 -0 -0 0 0 0 0 0 0 0 0 0 0 0 0 0 0 0 0 0 0 0 0 0 0 0 0 0 0 0 0 0 0 0 0 0 0 0 0 0 0 0
0 -0 -0 -0 0 0 0 0 0 0 0 0 0 0 0 0 0 0 0 0 0 0 0 0 0 0 0 0 0 0 0 0 0 0 0 0 0 0 0 0 0 0 0
-0 0 -0 -0 -0 0 0 0 0 0 0 0 0 0 0 0 0 0 0 0 0 0 0 0 0 0 0 0 0 0 0 0 0 0 0 0 0 0 0 0 0 0 0
-0 -0 -0 -0 0 0 0 0 0 0 0 -0 0 0 0 0 0 0 0 0 0 0 0 0 0 0 0 0 0 0 0 0 0 0 0 0 0 0 0 0 0 0 0
-0 -0 -0 -0 0 0 0 0 0 0 0 0 -0 0 0 0 0 0 0 0 0 0 0 0 0 0 0 0 0 0 0 0 0 0 0 0 0 0 0 0 0 0 0
-0 -0 -0 -0 0 0 0 0 0 0 0 0 0 0 0 0 0 0 0 0 0 0 0 0 0 0 0 0 0 0 0 0 0 0 0 0 0 0 0 0 0 0 0
-0 -0 -0 0 0 0 0 0 0 0 0 0 0 0 0 0 0 0 0 0 0 0 0 0 0 0 0 0 0 0 0 0 0 0 0 0 0 0 0 0 0 0 0
-0 -0 0 0 0 0 0 0 0 0 0 0 0 0 0 0 0 0 0 0 0 0 0 0 0 0 0 0 0 0 0 0 0 0 0 0 0 0 0 0 -0 0 0
0 0 0 0 0 0 0 0 0 0 0 0 0 0 0 0 0 0 0 0 0 0 0 0 0 0 0 0 0 0 0 0 0 0 0 -0 0 0 0 0 0 0 0
0 0 0 0 0 0 0 0 0 0 0 0 0 0 0 0 0 0 0 0 0 0 0 0 0 0 0 0 0 0 0 0 0 0 0 -0 0 0 0 0 -0 0 -0
-0 0 0 0 0 0 0 0 0 0 0 0 0 0 0 0 0 0 0 0 0 0 0 0 0 0 0 -0 0 0 0 0 0 0 0 -0 0 0 0 0 0 -0 -0
0 0 0 0 0 0 0 0 0 0 0 0 0 0 0 0 0 0 0 0 0 0 0 0 0 0 0 -0 0 0 0 0 0 0 0 -0 0 0 0 0 -0 -0 -0
0 0 0 0 0 0 0 0 0 0 0 0 0 0 0 0 0 -0 0 0 0 0 0 0 0 0 -0 -0 -0 0 0 0 0 -0 -0 0 -0 -0 0 0 0 -0 -0
0 0 0 0 0 0 0 0 0 0 0 0 0 0 0 0 0 -0 0 0 0 0 0 0 0 0 0 -0 -0 0 0 0 0 -0 0 0 0 0 0 0 0 0 0
Wind_Speed_500mb
37 34 29 30 32 32 31 27 30 31 27 23 35 37 35 38 31 25 24 24 37 42 31 26 19 33 27 28 21 19 19 22 31 33 40 47 50 47 34 29 31 31 32
36 45 42 40 39 35 33 35 35 33 33 31 27 28 24 28 33 30 37 28 36 43 33 30 29 35 31 31 20 19 21 25 34 36 41 47 50 44 33 27 26 29 24
32 43 50 51 55 42 38 42 45 42 34 34 36 33 30 30 33 38 42 36 32 39 37 35 33 34 34 33 20 24 28 32 33 38 40 46 47 41 25 24 26 26 30
36 37 42 54 61 65 52 48 52 57 47 42 38 37 39 39 46 47 44 42 40 38 43 38 34 36 29 28 23 30 34 37 37 40 39 42 44 42 29 30 27 28 30
36 41 43 44 52 66 63 57 50 49 53 57 48 40 44 53 47 48 47 48 50 50 48 47 36 28 23 29 37 38 41 39 40 40 40 44 43 39 25 27 27 26 32
35 33 37 42 43 51 62 59 51 44 49 49 49 47 47 52 59 49 53 57 58 57 54 52 41 34 26 38 43 42 45 41 44 39 37 41 41 35 29 27 31 24 28
36 36 30 32 44 44 54 55 61 57 50 51 50 57 54 54 58 54 55 60 57 59 59 53 48 41 40 45 51 44 48 42 35 33 33 38 39 33 26 28 29 29 31
41 38 33 28 28 35 46 50 42 48 55 54 50 50 54 61 61 56 47 47 56 61 61 57 50 47 43 40 52 49 44 22 23 26 33 37 33 28 25 26 27 30 32
43 41 36 28 20 21 28 40 44 53 60 49 58 47 28 41 54 51 46 51 50 57 64 50 39 33 39 59 51 40 31 24 18 22 29 33 30 21 24 24 26 30 29
49 43 38 31 26 23 26 37 45 55 57 63 57 58 51 61 44 21 37 42 44 45 60 59 39 41 58 60 41 36 27 18 17 21 28 28 20 20 23 24 28 29 28
54 53 50 47 40 28 26 39 40 49 57 63 64 65 59 54 59 51 29 32 38 46 53 50 51 45 63 49 37 33 23 15 16 22 24 22 22 22 23 27 29 29 28
62 56 58 55 46 37 32 32 38 50 55 71 69 68 66 52 48 57 45 45 52 47 56 50 58 58 56 45 34 26 11 10 17 19 20 20 22 25 26 26 31 32 27
65 65 63 61 56 49 42 37 40 48 58 61 67 70 68 58 56 55 53 44 44 52 48 52 52 54 48 36 30 18 5 18 16 19 19 22 25 25 28 29 32 31 30
62 62 66 69 63 53 49 48 40 41 51 53 43 59 58 56 51 45 51 51 43 52 56 53 58 56 45 37 30 14 11 21 22 24 22 26 26 27 30 32 34 35 32
58 65 71 75 66 54 49 51 50 45 45 57 55 54 59 53 42 47 49 45 44 39 54 56 50 56 50 45 30 19 16 18 23 29 27 28 30 31 32 32 33 36 31
62 72 83 88 77 61 53 50 51 49 47 54 65 60 52 49 40 46 47 44 41 48 41 55 59 57 60 45 34 25 23 21 24 29 30 27 32 35 36 32 31 33 33
75 87 86 81 73 66 60 57 51 50 47 50 63 53 53 66 45 45 55 54 48 47 49 38 50 55 58 50 40 32 29 20 23 26 30 32 35 39 36 32 28 28 29
92 95 87 79 71 65 54 58 52 50 52 46 54 65 60 73 55 55 63 60 53 49 42 44 43 56 54 48 44 36 33 22 15 24 30 33 39 41 39 34 30 27 25
95 92 76 71 65 55 49 48 49 48 51 45 37 41 53 71 67 64 61 57 53 47 42 42 42 53 53 54 46 41 31 22 12 19 28 34 41 39 44 44 37 29 26
81 73 65 61 51 46 45 47 46 43 46 49 36 42 59 65 60 56 52 51 51 48 46 48 43 52 60 56 45 46 37 23 14 12 23 32 40 38 43 43 42 37 31
66 58 54 45 41 43 45 42 39 38 42 42 37 35 49 63 58 65 63 52 52 50 50 44 46 62 69 66 59 44 33 33 19 8 15 26 36 35 40 42 40 38 38
58 45 38 38 44 46 44 43 43 39 35 36 38 45 52 58 60 59 49 51 49 53 46 41 55 66 75 66 55 45 44 40 28 15 10 24 31 35 42 40 41 44 47
51 38 38 41 41 41 33 29 26 33 35 33 38 32 36 42 50 17 43 40 38 37 39 35 44 77 73 61 56 50 44 37 26 21 17 22 25 40 39 42 50 45 46
43 43 37 34 35 30 36 27 28 32 34 30 22 27 34 45 42 42 46 43 42 47 38 32 43 53 54 55 43 42 36 35 27 23 16 22 21 35 38 45 47 43 49
41 37 34 36 31 31 27 25 31 36 33 27 25 19 34 55 46 54 44 44 44 28 25 46 52 61 52 48 47 42 44 37 37 30 15 11 14 27 47 45 40 44 55
33 28 26 23 32 27 19 28 30 35 42 42 33 37 33 41 40 39 45 50 51 63 72 77 69 57 49 44 41 36 40 31 30 34 26 4 5 6 29 40 35 36 40
Wind_Direction_500mb
275 272 279 282 293 282 269 276 276 281 294 282 267 262 257 249 252 269 287 251 236 233 239 248 274 291 272 277 285 296 312 332 341 332 335 342 342 345 353 357 349 347 338
278 276 273 265 271 279 278 272 271 271 274 282 285 250 259 252 248 271 273 261 233 233 239 242 258 280 265 273 293 298 319 319 326 330 336 338 339 346 351 353 350 336 332
284 278 276 269 264 270 280 269 265 264 268 275 272 257 247 241 251 267 265 256 244 236 246 253 260 264 267 268 278 291 300 310 310 321 333 333 341 339 334 330 328 326 324
268 276 272 267 264 261 268 273 268 262 260 264 275 264 249 246 247 254 265 260 252 256 248 249 268 259 262 246 262 269 289 296 302 316 328 332 340 340 353 340 333 332 323
298 275 277 269 265 260 264 268 274 271 267 263 263 273 258 247 245 258 258 260 259 254 252 241 238 238 246 247 253 267 278 295 296 311 325 335 338 340 340 337 324 329 326
317 315 283 282 267 265 266 262 263 270 273 276 268 266 264 247 244 249 251 253 253 252 246 239 226 224 228 235 254 276 272 294 297 309 325 336 333 337 335 326 321 331 323
328 320 318 290 274 263 268 270 267 271 277 261 270 269 266 260 256 248 250 245 249 251 243 234 233 220 220 237 243 264 261 278 291 310 332 332 331 334 328 328 323 329 331
328 331 332 324 294 280 267 267 266 272 270 261 261 271 272 262 260 260 246 237 239 245 237 231 230 219 230 254 238 249 263 277 296 319 340 332 335 329 331 325 326 334 334
316 323 326 326 314 294 284 265 272 263 267 264 268 261 269 264 261 258 253 236 241 233 231 229 250 240 257 231 228 256 264 278 303 339 343 331 325 343 330 338 343 338 336
312 317 325 321 316 297 269 271 275 267 252 264 261 265 259 260 262 255 229 228 232 230 219 235 218 236 236 225 232 254 266 284 339 352 344 330 343 355 349 347 344 340 340
313 309 314 318 311 304 277 268 272 275 267 263 263 261 261 264 260 253 255 238 236 225 232 219 220 229 226 222 236 255 264 309 3 356 346 343 359 352 345 346 348 344 339
318 311 311 313 314 308 281 265 256 254 258 267 262 263 259 258 261 253 250 254 241 225 217 228 215 217 228 225 235 247 278 349 15 0 356 359 1 354 350 343 345 341 344
320 313 314 311 310 304 294 272 267 261 261 268 266 259 260 253 257 261 254 251 237 225 222 216 220 220 220 226 235 243 282 63 37 22 20 11 6 359 358 357 355 349 350
317 317 318 317 309 302 296 286 264 265 269 258 260 248 250 250 256 247 248 247 235 227 220 218 218 221 224 227 226 210 122 83 55 36 27 20 10 4 2 359 360 0 356
310 314 314 317 311 302 294 295 279 264 270 255 258 256 257 247 247 253 247 251 249 228 227 224 220 226 223 220 210 182 131 96 60 41 33 29 21 12 3 358 1 2 1
306 310 312 309 304 295 291 291 283 259 266 255 254 255 259 247 236 248 244 245 250 248 239 234 228 227 218 208 198 168 132 101 63 45 33 23 19 15 9 360 360 3 6
303 307 310 305 300 295 283 281 278 265 256 255 256 254 270 246 236 242 244 245 248 248 247 246 233 222 211 200 183 156 141 107 70 46 32 24 24 17 12 8 1 5 9
301 303 304 298 293 292 284 272 271 264 253 257 255 257 248 227 227 240 242 243 245 244 244 242 223 212 205 199 180 159 147 120 78 51 38 37 26 21 21 15 11 4 357
296 299 296 291 289 283 275 265 268 265 253 267 270 240 235 227 240 232 234 238 243 240 238 240 218 203 196 177 166 158 158 127 105 67 49 40 28 28 25 23 16 6 2
293 292 286 284 280 276 270 270 270 268 258 257 259 245 242 235 227 227 230 233 243 237 229 228 214 197 183 171 168 164 158 160 142 83 62 44 29 27 23 18 16 19 16
294 287 283 276 275 274 273 269 265 261 248 257 245 229 247 245 237 223 223 236 246 243 226 220 200 181 169 168 173 170 160 170 163 138 78 52 28 27 22 21 21 25 19
289 285 275 277 276 277 273 267 263 253 241 247 255 233 230 235 226 199 189 232 251 253 232 225 208 189 172 168 169 159 166 171 174 163 125 59 33 35 26 27 30 24 15
290 277 275 278 282 284 276 261 236 233 237 238 228 238 223 206 198 165 187 225 226 225 226 241 212 182 172 170 159 159 168 165 154 146 142 77 40 42 28 31 29 27 25
278 275 278 275 275 271 293 250 222 218 209 206 208 232 232 217 206 191 217 207 200 207 210 229 206 164 162 159 159 151 144 150 151 150 137 94 53 46 37 35 37 39 41
271 278 286 282 276 285 284 201 193 193 182 165 169 189 210 200 187 177 195 189 179 179 165 149 142 139 145 156 159 155 165 162 163 163 167 122 74 52 45 43 46 55 57
273 286 292 268 278 284 193 174 155 164 170 162 157 141 152 159 161 173 170 166 160 148 141 130 136 142 149 165 169 170 167 160 164 179 190 186 244 317 36 48 54 58 59
Wind_Speed_850mb
37 34 29 30 32 32 31 27 30 31 27 23 35 37 35 38 31 25 24 24 37 42 31 26 19 33 27 28 21 19 19 22 31 33 40 47 50 47 34 29 31 31 32
36 45 42 40 39 35 33 35 35 33 33 31 27 28 24 28 33 30 37 28 36 43 33 30 29 35 31 31 20 19 21 25 34 36 41 47 50 44 33 27 26 29 24
32 43 50 51 55 42 38 42 45 42 34 34 36 33 30 30 33 38 42 36 32 39 37 35 33 34 34 33 20 24 28 32 33 38 40 46 47 41 25 24 26 26 30
36 37 42 54 61 65 52 48 52 57 47 42 38 37 39 39 46 47 44 42 40 38 43 38 34 36 29 28 23 30 34 37 37 40 39 42 44 42 29 30 27 28 30
36 41 43 44 52 66 63 57 50 49 53 57 48 40 44 53 47 48 47 48 50 50 48 47 36 28 23 29 37 38 41 39 40 40 40 44 43 39 25 27 27 26 32
35 33 37 42 43 51 62 59 51 44 49 49 49 47 47 52 59 49 53 57 58 57 54 52 41 34 26 38 43 42 45 41 44 39 37 41 41 35 29 27 31 24 28
36 36 30 32 44 44 54 55 61 57 50 51 50 57 54 54 58 54 55 60 57 59 59 53 48 41 40 45 51 44 48 42 35 33 33 38 39 33 26 28 29 29 31
41 38 33 28 28 35 46 50 42 48 55 54 50 50 54 61 61 56 47 47 56 61 61 57 50 47 43 40 52 49 44 22 23 26 33 37 33 28 25 26 27 30 32
43 41 36 28 20 21 28 40 44 53 60 49 58 47 28 41 54 51 46 51 50 57 64 50 39 33 39 59 51 40 31 24 18 22 29 33 30 21 24 24 26 30 29
49 43 38 31 26 23 26 37 45 55 57 63 57 58 51 61 44 21 37 42 44 45 60 59 39 41 58 60 41 36 27 18 17 21 28 28 20 20 23 24 28 29 28
54 53 50 47 40 28 26 39 40 49 57 63 64 65 59 54 59 51 29 32 38 46 53 50 51 45 63 49 37 33 23 15 16 22 24 22 22 22 23 27 29 29 28
62 56 58 55 46 37 32 32 38 50 55 71 69 68 66 52 48 57 45 45 52 47 56 50 58 58 56 45 34 26 11 10 17 19 20 20 22 25 26 26 31 32 27
65 65 63 61 56 49 42 37 40 48 58 61 67 70 68 58 56 55 53 44 44 52 48 52 52 54 48 36 30 18 5 18 16 19 19 22 25 25 28 29 32 31 30
62 62 66 69 63 53 49 48 40 41 51 53 43 59 58 56 51 45 51 51 43 52 56 53 58 56 45 37 30 14 11 21 22 24 22 26 26 27 30 32 34 35 32
58 65 71 75 66 54 49 51 50 45 45 57 55 54 59 53 42 47 49 45 44 39 54 56 50 56 50 45 30 19 16 18 23 29 27 28 30 31 32 32 33 36 31
62 72 83 88 77 61 53 50 51 49 47 54 65 60 52 49 40 46 47 44 41 48 41 55 59 57 60 45 34 25 23 21 24 29 30 27 32 35 36 32 31 33 33
75 87 86 81 73 66 60 57 51 50 47 50 63 53 53 66 45 45 55 54 48 47 49 38 50 55 58 50 40 32 29 20 23 26 30 32 35 39 36 32 28 28 29
92 95 87 79 71 65 54 58 52 50 52 46 54 65 60 73 55 55 63 60 53 49 42 44 43 56 54 48 44 36 33 22 15 24 30 33 39 41 39 34 30 27 25
95 92 76 71 65 55 49 48 49 48 51 45 37 41 53 71 67 64 61 57 53 47 42 42 42 53 53 54 46 41 31 22 12 19 28 34 41 39 44 44 37 29 26
81 73 65 61 51 46 45 47 46 43 46 49 36 42 59 65 60 56 52 51 51 48 46 48 43 52 60 56 45 46 37 23 14 12 23 32 40 38 43 43 42 37 31
66 58 54 45 41 43 45 42 39 38 42 42 37 35 49 63 58 65 63 52 52 50 50 44 46 62 69 66 59 44 33 33 19 8 15 26 36 35 40 42 40 38 38
58 45 38 38 44 46 44 43 43 39 35 36 38 45 52 58 60 59 49 51 49 53 46 41 55 66 75 66 55 45 44 40 28 15 10 24 31 35 42 40 41 44 47
51 38 38 41 41 41 33 29 26 33 35 33 38 32 36 42 50 17 43 40 38 37 39 35 44 77 73 61 56 50 44 37 26 21 17 22 25 40 39 42 50 45 46
43 43 37 34 35 30 36 27 28 32 34 30 22 27 34 45 42 42 46 43 42 47 38 32 43 53 54 55 43 42 36 35 27 23 16 22 21 35 38 45 47 43 49
41 37 34 36 31 31 27 25 31 36 33 27 25 19 34 55 46 54 44 44 44 28 25 46 52 61 52 48 47 42 44 37 37 30 15 11 14 27 47 45 40 44 55
33 28 26 23 32 27 19 28 30 35 42 42 33 37 33 41 40 39 45 50 51 63 72 77 69 57 49 44 41 36 40 31 30 34 26 4 5 6 29 40 35 36 40
Wind_Direction_850mb
275 272 279 282 293 282 269 276 276 281 294 282 267 262 257 249 252 269 287 251 236 233 239 248 274 291 272 277 285 296 312 332 341 332 335 342 342 345 353 357 349 347 338
278 276 273 265 271 279 278 272 271 271 274 282 285 250 259 252 248 271 273 261 233 233 239 242 258 280 265 273 293 298 319 319 326 330 336 338 339 346 351 353 350 336 332
284 278 276 269 264 270 280 269 265 264 268 275 272 257 247 241 251 267 265 256 244 236 246 253 260 264 267 268 278 291 300 310 310 321 333 333 341 339 334 330 328 326 324
268 276 272 267 264 261 268 273 268 262 260 264 275 264 249 246 247 254 265 260 252 256 248 249 268 259 262 246 262 269 289 296 302 316 328 332 340 340 353 340 333 332 323
298 275 277 269 265 260 264 268 274 271 267 263 263 273 258 247 245 258 258 260 259 254 252 241 238 238 246 247 253 267 278 295 296 311 325 335 338 340 340 337 324 329 326
317 315 283 282 267 265 266 262 263 270 273 276 268 266 264 247 244 249 251 253 253 252 246 239 226 224 228 235 254 276 272 294 297 309 325 336 333 337 335 326 321 331 323
328 320 318 290 274 263 268 270 267 271 277 261 270 269 266 260 256 248 250 245 249 251 243 234 233 220 220 237 243 264 261 278 291 310 332 332 331 334 328 328 323 329 331
328 331 332 324 294 280 267 267 266 272 270 261 261 271 272 262 260 260 246 237 239 245 237 231 230 219 230 254 238 249 263 277 296 319 340 332 335 329 331 325 326 334 334
316 323 326 326 314 294 284 265 272 263 267 264 268 261 269 264 261 258 253 236 241 233 231 229 250 240 257 231 228 256 264 278 303 339 343 331 325 343 330 338 343 338 336
312 317 325 321 316 297 269 271 275 267 252 264 261 265 259 260 262 255 229 228 232 230 219 235 218 236 236 225 232 254 266 284 339 352 344 330 343 355 349 347 344 340 340
313 309 314 318 311 304 277 268 272 275 267 263 263 261 261 264 260 253 255 238 236 225 232 219 220 229 226 222 236 255 264 309 3 356 346 343 359 352 345 346 348 344 339
318 311 311 313 314 308 281 265 256 254 258 267 262 263 259 258 261 253 250 254 241 225 217 228 215 217 228 225 235 247 278 349 15 0 356 359 1 354 350 343 345 341 344
320 313 314 311 310 304 294 272 267 261 261 268 266 259 260 253 257 261 254 251 237 225 222 216 220 220 220 226 235 243 282 63 37 22 20 11 6 359 358 357 355 349 350
317 317 318 317 309 302 296 286 264 265 269 258 260 248 250 250 256 247 248 247 235 227 220 218 218 221 224 227 226 210 122 83 55 36 27 20 10 4 2 359 360 0 356
310 314 314 317 311 302 294 295 279 264 270 255 258 256 257 247 247 253 247 251 249 228 227 224 220 226 223 220 210 182 131 96 60 41 33 29 21 12 3 358 1 2 1
306 310 312 309 304 295 291 291 283 259 266 255 254 255 259 247 236 248 244 245 250 248 239 234 228 227 218 208 198 168 132 101 63 45 33 23 19 15 9 360 360 3 6
303 307 310 305 300 295 283 281 278 265 256 255 256 254 270 246 236 242 244 245 248 248 247 246 233 222 211 200 183 156 141 107 70 46 32 24 24 17 12 8 1 5 9
301 303 304 298 293 292 284 272 271 264 253 257 255 257 248 227 227 240 242 243 245 244 244 242 223 212 205 199 180 159 147 120 78 51 38 37 26 21 21 15 11 4 357
296 299 296 291 289 283 275 265 268 265 253 267 270 240 235 227 240 232 234 238 243 240 238 240 218 203 196 177 166 158 158 127 105 67 49 40 28 28 25 23 16 6 2
293 292 286 284 280 276 270 270 270 268 258 257 259 245 242 235 227 227 230 233 243 237 229 228 214 197 183 171 168 164 158 160 142 83 62 44 29 27 23 18 16 19 16
294 287 283 276 275 274 273 269 265 261 248 257 245 229 247 245 237 223 223 236 246 243 226 220 200 181 169 168 173 170 160 170 163 138 78 52 28 27 22 21 21 25 19
289 285 275 277 276 277 273 267 263 253 241 247 255 233 230 235 226 199 189 232 251 253 232 225 208 189 172 168 169 159 166 171 174 163 125 59 33 35 26 27 30 24 15
290 277 275 278 282 284 276 261 236 233 237 238 228 238 223 206 198 165 187 225 226 225 226 241 212 182 172 170 159 159 168 165 154 146 142 77 40 42 28 31 29 27 25
278 275 278 275 275 271 293 250 222 218 209 206 208 232 232 217 206 191 217 207 200 207 210 229 206 164 162 159 159 151 144 150 151 150 137 94 53 46 37 35 37 39 41
271 278 286 282 276 285 284 201 193 193 182 165 169 189 210 200 187 177 195 189 179 179 165 149 142 139 145 156 159 155 165 162 163 163 167 122 74 52 45 43 46 55 57
273 286 292 268 278 284 193 174 155 164 170 162 157 141 152 159 161 173 170 166 160 148 141 130 136 142 149 165 169 170 167 160 164 179 190 186 244 317 36 48 54 58 59